User: anonymous   Login
Location: Observatoire de Paris
(48.8363°N, 2.3365°E)
Time: 14:28:05
(UTC+01:00)
Language:

EO-79 - Orbit

View from above orbital plane
View from above orbital plane
View from above satellite
View from above satellite

Ground track
Ground track

The orbit data is extracted from the following two-line orbital elements,

1 40025U 14033R   21266.76801781  .00000634  00000-0  72398-4 0  9993
2 40025  97.9344 197.7256 0011454 209.6798 150.3770 14.89542777394050
Epoch (UTC): 23 September 2021 18:25:56
Eccentricity: 0.0011454
inclination: 97.9344°
perigee height: 591 km
apogee height: 607 km
right ascension of ascending node: 197.7256°
argument of perigee: 209.6798°
revolutions per day: 14.89542777
mean anomaly at epoch: 150.3770°
orbit number at epoch: 39405

The dashed part of the orbit path shows where the satellite is in the earth's shadow,  

DLR